Home > Weather > Ansfelden > Past weeks

Flag for Austria Past Weather in Ansfelden, Upper Austria, Austria — Yesterday and Last 2 Weeks

Now
64 °F

Mild.


Feels Like: 64 °F
Forecast: 60 / 79 °F
Wind: N/A

Location: Linz / Hoersching-Flughafen

Current Time: Aug 25, 2016 at 1:31:47 AM

Latest Report: Aug 25, 2016 at 12:00 AM


Visibility: 22 mi

Pressure: 30.22 "Hg

Humidity: 81%

Dew Point: 58 °F

Location of AnsfeldenLocation

Past Weather in Ansfelden — Graph

°F

Ansfelden Temperature Yesterday

Maximum temperature yesterday: 80 °F (at 5:00 PM)
Minimum temperature yesterday: 56 °F (at 7:00 AM)
Average temperature yesterday: 70 °F

High & Low Weather Summary for the Past Weeks

 TemperatureHumidityPressure
High83 °F (Aug 20, 4:00 PM)98% (Aug 16, 5:00 AM)30.42 "Hg (Aug 16, 5:00 AM)
Low49 °F (Aug 12, 3:00 AM)35% (Aug 20, 5:00 PM)29.77 "Hg (Aug 18, 5:00 PM)
Average64 °F75%30.11 "Hg
* Reported Aug 10 12:00 AM — Aug 25 12:00 AM, Ansfelden, Weather by CustomWeather, © 2016

Note: Actual official high and low records may vary slightly from our data, if they occured in-between our weather recording intervals... More about our weather records

Advertising

Ansfelden Weather History for the Previous 24 Hours

Scroll right to see more
 ConditionsComfort  
Time TempWeatherWind HumidityBarometerVisibility
12:00 AM
Thu, Aug 25
64 °FMild.N/A81%30.22 "Hg22 mi
11:00 PM
Wed, Aug 24
66 °FMild.N/A75%30.22 "Hg22 mi
10:00 PM68 °FPassing clouds.3 mph71%30.22 "Hg22 mi
9:00 PM69 °FMild.N/A66%30.21 "Hg28 mi
8:00 PM73 °FClear.3 mph61%30.20 "Hg28 mi
7:00 PM77 °FSunny.3 mph52%30.19 "Hg19 mi
6:00 PM79 °FPassing clouds.5 mph50%30.19 "Hg19 mi
5:00 PM80 °FPassing clouds.5 mph48%30.19 "Hg25 mi
4:00 PM79 °FPassing clouds.5 mph47%30.20 "Hg19 mi
3:00 PM79 °FPassing clouds.5 mph46%30.22 "Hg22 mi
2:00 PM80 °FPassing clouds.5 mph47%30.23 "Hg22 mi
1:00 PM77 °FPassing clouds.3 mph49%30.25 "Hg11 mi
12:00 PM75 °FPassing clouds.3 mph54%30.27 "Hg19 mi
11:00 AM73 °FPassing clouds.N/A61%30.28 "Hg13 mi
10:00 AM69 °FPassing clouds.3 mph70%30.29 "Hg25 mi
8:00 AMN/APassing clouds.12 mphN/AN/A3 mi
7:00 AM56 °FRain. Sunny.N/A98%30.32 "Hg11 mi
6:00 AM57 °FLight rain. Clear.No wind97%30.31 "Hg1 mi
5:00 AM58 °FPassing clouds.N/A97%30.30 "Hg6 mi
4:00 AM59 °FPassing clouds.No wind94%30.31 "Hg16 mi
3:00 AM61 °FCool.N/A95%30.31 "Hg11 mi
2:00 AM62 °FPassing clouds.N/A90%30.32 "Hg22 mi
Weather by CustomWeather, © 2016

See weather overviewHow to use our weather pages